Location: Holkham
(52.9500°N, 0.8167°E)
Time: 20:05:19
(UTC+00:00)

Nadezhda 3 Rocket - Pass Details

Date: 19 May 2025
Orbit: 957 x 997 km, 82.9° (Epoch: 22 June)

Event Time Altitude Azimuth Distance (km) Brightness Sun altitude
Exits shadow 23:06:39 16° 208° (SSW) 2,316 5.5 -16.4°
Maximum altitude 23:11:42 60° 286° (WNW) 1,111 4.4 -16.5°
Drops below altitude 10° 23:17:54 10° 5° (N) 2,741 7.6 -16.7°
Sets 23:20:29 0° 10° (N) 3,699 8.5 -16.7°
